Regional Weather Roundup
Issued by NWS Green Bay, WI

Home | Current Version | Previous Version | Graphics & Text | Print | Product List | Glossary Off
Versions: 1 2 3 4 5 6 7 8 9 10 11 12 13 14 15 16 17 18 19 20 21 22 23 24 25 26 27 28 29 30 31 32 33 34 35 36 37 38 39 40 41 42 43 44 45 46 47 48 49 50

000
ASUS43 KGRB 302310
RWRGRB

NORTH-CENTRAL AND NORTHEAST WISCONSIN REGIONAL WEATHER ROUNDUP
NATIONAL WEATHER SERVICE GREEN BAY WI
600 PM CDT WED JUL 30 2014

WIZ005-009-010>012-018-019-310000-
NORTH CENTRAL WISCONSIN

CITY           SKY/WX    TMP DP  RH WIND       PRES   REMARKS
IRONWOOD       NOT AVBL
MANITOWISH WTR LGT RAIN  66  58  74 W7        29.99S
ARBOR VITAE    MOSUNNY   72  57  58 W9G16     29.99S
EAGLE RIVER    MOSUNNY   69  52  53 W10       29.97F
LAND O LAKES   TSTM      62  53  72 E7G17     30.00R
RHINELANDER    CLOUDY    69  53  56 W14       30.00F
PHILLIPS       SUNNY     72  57  59 SW10      30.00R
ANTIGO         SUNNY     70  52  53 W10       29.99F
TOMAHAWK       MOSUNNY   70  55  58 W5        30.01S
MERRILL        SUNNY     72  54  53 W9        30.00S
$$

WIZ013-073-310000-
NORTHEAST WISCONSIN

CITY           SKY/WX    TMP DP  RH WIND       PRES   REMARKS
IRON MOUNTAIN  LGT RAIN  61  56  83 N3        29.98R
MARINETTE      MOSUNNY   70  52  52 SW10      29.95F
OCONTO         MOSUNNY   71  57  60 S6        29.96F
$$

WIZ017-030-035>037-045-310000-
CENTRAL WISCONSIN

CITY           SKY/WX    TMP DP  RH WIND       PRES   REMARKS
MEDFORD        MOSUNNY   69  56  63 W6        30.02F
WAUSAU         SUNNY     73  51  46 W13       29.99F
MOSINEE        MOSUNNY   73  50  43 W9        30.02F
MARSHFIELD     MOSUNNY   71  55  56 W7        30.02F
WISC RAPIDS    SUNNY     72  51  47 W7        30.03F
STEVENS POINT  SUNNY     72  49  44 W9        30.02S
WAUPACA        SUNNY     77  46  33 W6        30.00F
SHAWANO        SUNNY     75  49  39 W6        29.98F
CLINTONVILLE   SUNNY     73  45  35 NW10      29.98F
$$

WIZ038-039-048-051-310000-
FOX VALLEY

CITY           SKY/WX    TMP DP  RH WIND       PRES   REMARKS
NWS GREEN BAY  SUNNY     74  54  49 W7        29.98F
APPLETON       MOSUNNY   73  46  38 W8        30.00S
OSHKOSH        MOSUNNY   74  53  48 W6        29.99F
FOND DU LAC    MOSUNNY   73  52  47 W6        30.00F
$$

WIZ022-050-052-310000-
EAST CENTRAL WISCONSIN

CITY           SKY/WX    TMP DP  RH WIND       PRES   REMARKS
STURGEON BAY   PTSUNNY   66  54  63 S9        29.98F
MANITOWOC      SUNNY     65  52  62 SE9       30.01S
SHEBOYGAN      MOSUNNY   73  52  47 NW3       30.00F
$$

LMZ563-521-522-541>543-310000-
LAKESHORE

STATION/POSITION TIME  TEMP    WIND        PRES    VSBY  WAVE
                       AIR SEA DIR/SP/G                  HT/PER
                 (UTC) (F)     (DEG/KT/KT) (MB)    (MI)  (FT/S)
SHEBOYGAN LKSHOR 2300   63     170/  8/  9 1016.1F
KEWAUNEE LKSHORE 2300   58     180/ 10/ 11 1015.5F
NORTHPORT PIER   2300   65     150/  7/ 13 1014.6F
N MID LAKE BUOY  2300   57 55  200/  8/ 10 1014.6F         0
S GREEN BAY BUOY 2300   70 68  200/  6     1015.4F
SISTER BAY LKSHO 2200   68     190/ 13/ 14   N/A
CHAMBERS ISLAND  2300   69     170/  5/ 10 1014.6F
MENOMINEE LKSHOR 2300   69     170/ 10/ 13 1015.1F
$$



USA.gov is the U.S. government's official web portal to all federal, state and local government web resources and services.